Location: Alt?nova Orta
(36.9295°N, 30.7847°E)
Time: 17:40:24
(UTC+00:00)

STARLINK-1055 - Pass Details

Date: 17 February 2020
Orbit: 549 x 551 km, 53.0° (Epoch: 06 April)

Event Time Altitude Azimuth Distance (km) Brightness Sun altitude
Exits shadow 02:37:42 47° 42° (NE) 728 4.4 -25.9°
Drops below altitude 10° 02:41:37 10° 113° (ESE) 1,817 7.1 -25.1°
Sets 02:43:54 0° 119° (ESE) 2,708 8.0 -24.6°
